Location: Drawsko Pomorskie
(53.5317°N, 15.8111°E)
Time: 21:07:09
(UTC+01:00)

ISS - Pass Details

Date: 01 February 2019
Orbit: 403 x 411 km, 51.6° (Epoch: 23 February)

Event Time Altitude Azimuth Distance (km) Brightness Sun altitude
Rises 17:17:25 0° 253° (WSW) 2,330 2.8 -6.1°
Reaches altitude 10° 17:19:31 10° 249° (WSW) 1,472 0.9 -6.4°
Maximum altitude 17:22:45 56° 171° (S) 494 -3.3 -6.8°
Drops below altitude 10° 17:26:01 10° 91° (E) 1,480 -1.6 -7.3°
Enters shadow 17:26:18 - 91° (E) 1,591 -1.4 -7.3°
